Volver al catálogo

STARLINK-3947

ActivoComunicacionesVLEO
NORAD 52607·PAYLOAD·🇺🇸 United States

Lanzado May 14, 2022 desde Cape Canaveral Space Force Station

Loading…

Próximos Pases (próximas 24 horas)

TLE

ActualizadoSource: CelesTrak SupGP

Época: Sep 14, 2026, 20:33 UTC

1 52607C 22052K   26257.85673611 -.00048880  00000+0 -15720-2 0  2573
2 52607  53.1579 144.0793 0001338  91.5474  71.9688 15.31722435    18

Sigue STARLINK-3947 en tiempo real con AllMySat

Download on the App Store